This is the latest recevied weather packets stored in our database for station/object KO4ZGL-13. If no packets are shown the sender has not sent any weather packets the latest 10 day(s).
| Time | Temp. | Humidity | Pressure | Rain* | Wind** | Luminosity | Snow |
|---|---|---|---|---|---|---|---|
| 1787401750 | 23.33° C | 99% | 1016.5 hPa | 0 mm | - | 78 W/m² | - |
| 1787401447 | 23.33° C | 99% | 1016.5 hPa | 0 mm | - | 72 W/m² | - |
| 1787401142 | 23.33° C | 99% | 1016.5 hPa | 0 mm | - | 66 W/m² | - |
| 1787400838 | 23.33° C | 99% | 1016.4 hPa | 0 mm | - | 64 W/m² | - |
| 1787400537 | 23.33° C | 99% | 1016.4 hPa | 0 mm | - | 59 W/m² | - |
| 1787400233 | 23.33° C | 99% | 1016.5 hPa | 0 mm | - | 55 W/m² | - |
| 1787399930 | 23.33° C | 99% | 1016.3 hPa | 0 mm | - | 55 W/m² | - |
| 1787399625 | 23.33° C | 99% | 1016.3 hPa | 0 mm | - | 50 W/m² | - |
| 1787399324 | 22.78° C | 99% | 1016.5 hPa | 0 mm | - | 47 W/m² | - |
| 1787399019 | 23.33° C | 99% | 1016.3 hPa | 0 mm | - | 42 W/m² | - |
| 1787398714 | 22.78° C | 99% | 1016.2 hPa | 0 mm | - | 38 W/m² | - |
| 1787398411 | 22.78° C | 99% | 1015.9 hPa | 0 mm | - | 35 W/m² | - |
| 1787398106 | 22.78° C | 99% | 1016.1 hPa | 0 mm | - | 30 W/m² | - |
| 1787397805 | 22.78° C | 99% | 1015.9 hPa | 0 mm | - | 23 W/m² | - |
| 1787397501 | 22.78° C | 99% | 1015.9 hPa | 0 mm | - | 18 W/m² | - |
| 1787397196 | 22.78° C | 99% | 1015.9 hPa | 0 mm | - | 11 W/m² | - |
| 1787396891 | 22.78° C | 99% | 1016 hPa | 0 mm | - | 10 W/m² | - |
| 1787396587 | 22.78° C | 99% | 1015.6 hPa | 0 mm | - | 6 W/m² | - |
| 1787396287 | 22.78° C | 99% | 1015.4 hPa | 0 mm | - | 3 W/m² | - |
| 1787395982 | 22.78° C | 99% | 1015.4 hPa | 0 mm | - | 2 W/m² | - |
| 1787395676 | 22.78° C | 99% | 1015.6 hPa | 0 mm | - | 0 W/m² | - |
| 1787395372 | 22.78° C | 99% | 1015.4 hPa | 0 mm | - | 0 W/m² | - |
| 1787395065 | 22.78° C | 99% | 1015.4 hPa | 0 mm | - | 0 W/m² | - |
| 1787394762 | 22.78° C | 99% | 1015.2 hPa | 0 mm | - | 0 W/m² | - |
| 1787394458 | 22.78° C | 99% | 1015.2 hPa | 0 mm | - | 0 W/m² | - |
* Rain latest hour (hover to see other rain measurements)
** Current wind speed in m/s (hover to see current wind gust speed)